TimeCST,TemperatureF,Dew PointF,Humidity,Sea Level PressureIn,VisibilityMPH,Wind Direction,Wind SpeedMPH,Gust SpeedMPH,PrecipitationIn,Events,Conditions,WindDirDegrees,DateUTC
12:15 AM,37.4,21.2,52,29.88,10.0,ESE,3.5,-,N/A,,Clear,120,2012-12-18 06:15:00
12:35 AM,35.6,21.2,56,29.88,10.0,SSE,4.6,-,N/A,,Clear,150,2012-12-18 06:35:00
12:55 AM,42.8,24.8,49,29.88,10.0,Calm,Calm,-,N/A,,Clear,0,2012-12-18 06:55:00
1:15 AM,39.2,23.0,52,29.88,10.0,Calm,Calm,-,N/A,,Clear,0,2012-12-18 07:15:00
1:35 AM,35.6,19.4,52,29.87,10.0,East,4.6,-,N/A,,Clear,90,2012-12-18 07:35:00
1:55 AM,39.2,23.0,52,29.86,10.0,SE,3.5,-,N/A,,Clear,130,2012-12-18 07:55:00
2:15 AM,41.0,23.0,49,29.86,10.0,SE,3.5,-,N/A,,Clear,140,2012-12-18 08:15:00
2:35 AM,37.4,23.0,56,29.86,10.0,SSW,6.9,-,N/A,,Clear,200,2012-12-18 08:35:00
2:55 AM,37.4,23.0,56,29.86,10.0,SSW,8.1,-,N/A,,Clear,200,2012-12-18 08:55:00
3:15 AM,44.6,23.0,43,29.86,10.0,South,3.5,-,N/A,,Clear,190,2012-12-18 09:15:00
3:35 AM,42.8,23.0,46,29.87,10.0,SSW,4.6,-,N/A,,Clear,200,2012-12-18 09:35:00
3:55 AM,39.2,23.0,52,29.87,10.0,ESE,3.5,-,N/A,,Clear,120,2012-12-18 09:55:00
4:15 AM,42.8,24.8,49,29.86,10.0,ESE,3.5,-,N/A,,Clear,110,2012-12-18 10:15:00
4:35 AM,37.4,23.0,56,29.86,10.0,East,3.5,-,N/A,,Clear,100,2012-12-18 10:35:00
4:55 AM,33.8,23.0,65,29.86,10.0,Calm,Calm,-,N/A,,Clear,0,2012-12-18 10:55:00
5:15 AM,32.0,21.2,64,29.86,10.0,Calm,Calm,-,N/A,,Clear,0,2012-12-18 11:15:00
5:35 AM,32.0,23.0,69,29.86,10.0,Calm,Calm,-,N/A,,Clear,0,2012-12-18 11:35:00
5:55 AM,32.0,21.2,64,29.87,10.0,SE,3.5,-,N/A,,Clear,130,2012-12-18 11:55:00
6:15 AM,32.0,23.0,69,29.86,10.0,SE,3.5,-,N/A,,Clear,140,2012-12-18 12:15:00
6:35 AM,35.6,23.0,60,29.86,10.0,Calm,Calm,-,N/A,,Clear,0,2012-12-18 12:35:00
6:55 AM,32.0,23.0,69,29.87,10.0,Calm,Calm,-,N/A,,Clear,0,2012-12-18 12:55:00
7:15 AM,30.2,23.0,75,29.86,10.0,SE,3.5,-,N/A,,Clear,140,2012-12-18 13:15:00
7:35 AM,30.2,21.2,69,29.87,10.0,Calm,Calm,-,N/A,,Clear,0,2012-12-18 13:35:00
7:55 AM,32.0,23.0,69,29.88,10.0,NW,3.5,-,N/A,,Clear,320,2012-12-18 13:55:00
8:15 AM,35.6,24.8,65,29.89,10.0,NNW,4.6,-,N/A,,Clear,340,2012-12-18 14:15:00
8:35 AM,41.0,24.8,53,29.90,10.0,Calm,Calm,-,N/A,,Clear,0,2012-12-18 14:35:00
8:55 AM,42.8,24.8,49,29.90,10.0,Calm,Calm,-,N/A,,Clear,0,2012-12-18 14:55:00
9:15 AM,46.4,24.8,43,29.90,10.0,Calm,Calm,-,N/A,,Clear,0,2012-12-18 15:15:00
9:35 AM,50.0,24.8,37,29.91,10.0,Calm,Calm,-,N/A,,Clear,0,2012-12-18 15:35:00
9:55 AM,53.6,26.6,35,29.91,10.0,Calm,Calm,-,N/A,,Clear,0,2012-12-18 15:55:00
10:15 AM,57.2,26.6,31,29.92,10.0,Calm,Calm,-,N/A,,Clear,0,2012-12-18 16:15:00
10:35 AM,59.0,28.4,31,29.92,10.0,Calm,Calm,-,N/A,,Clear,0,2012-12-18 16:35:00
10:55 AM,62.6,28.4,27,29.92,10.0,SSW,4.6,-,N/A,,Clear,200,2012-12-18 16:55:00
11:15 AM,64.4,28.4,26,29.92,10.0,South,3.5,-,N/A,,Clear,190,2012-12-18 17:15:00
11:35 AM,68.0,26.6,21,29.91,10.0,SW,11.5,-,N/A,,Clear,220,2012-12-18 17:35:00
11:55 AM,69.8,26.6,20,29.89,10.0,SW,9.2,-,N/A,,Clear,230,2012-12-18 17:55:00
12:15 PM,71.6,26.6,19,29.87,10.0,SSW,12.7,17.3,N/A,,Clear,210,2012-12-18 18:15:00
12:35 PM,71.6,26.6,19,29.86,10.0,WSW,9.2,-,N/A,,Clear,240,2012-12-18 18:35:00
12:55 PM,73.4,26.6,18,29.85,10.0,SW,10.4,-,N/A,,Clear,220,2012-12-18 18:55:00
1:15 PM,73.4,26.6,18,29.84,10.0,SW,10.4,-,N/A,,Clear,220,2012-12-18 19:15:00
1:55 PM,75.2,24.8,15,29.82,10.0,SW,9.2,-,N/A,,Clear,230,2012-12-18 19:55:00
2:15 PM,75.2,24.8,15,29.80,10.0,SW,9.2,-,N/A,,Clear,230,2012-12-18 20:15:00
2:35 PM,77.0,24.8,14,29.80,10.0,SW,10.4,17.3,N/A,,Clear,230,2012-12-18 20:35:00
2:55 PM,77.0,23.0,13,29.79,10.0,SW,13.8,-,N/A,,Clear,230,2012-12-18 20:55:00
3:15 PM,77.0,23.0,13,29.79,10.0,SW,9.2,-,N/A,,Clear,230,2012-12-18 21:15:00
3:35 PM,77.0,24.8,14,29.78,10.0,West,9.2,-,N/A,,Clear,260,2012-12-18 21:35:00
3:55 PM,77.0,24.8,14,29.77,10.0,WSW,4.6,-,N/A,,Clear,240,2012-12-18 21:55:00
4:15 PM,77.0,24.8,14,29.77,10.0,Calm,Calm,-,N/A,,Clear,0,2012-12-18 22:15:00
4:35 PM,77.0,24.8,14,29.77,10.0,Calm,Calm,-,N/A,,Clear,0,2012-12-18 22:35:00
4:55 PM,77.0,24.8,14,29.76,10.0,Calm,Calm,-,N/A,,Clear,0,2012-12-18 22:55:00
5:15 PM,75.2,24.8,15,29.76,10.0,NNE,3.5,-,N/A,,Clear,30,2012-12-18 23:15:00
5:35 PM,71.6,24.8,17,29.76,10.0,NE,3.5,-,N/A,,Clear,50,2012-12-18 23:35:00
5:55 PM,64.4,24.8,22,29.76,4.0,NE,3.5,-,N/A,,Haze,50,2012-12-18 23:55:00
6:15 PM,57.2,26.6,31,29.76,10.0,East,4.6,-,N/A,,Clear,90,2012-12-19 00:15:00
6:35 PM,64.4,24.8,22,29.76,10.0,North,-9999.0,-,N/A,,Clear,0,2012-12-19 00:35:00
6:55 PM,57.2,24.8,29,29.77,10.0,North,-9999.0,-,N/A,,Clear,0,2012-12-19 00:55:00
7:15 PM,57.2,24.8,29,29.77,10.0,North,-9999.0,-,N/A,,Clear,0,2012-12-19 01:15:00
7:35 PM,57.2,24.8,29,29.78,10.0,North,-9999.0,-,N/A,,Clear,0,2012-12-19 01:35:00
7:55 PM,55.4,24.8,31,29.78,10.0,North,-9999.0,-,N/A,,Clear,0,2012-12-19 01:55:00
8:15 PM,55.4,26.6,33,29.78,10.0,North,-9999.0,-,N/A,,Clear,0,2012-12-19 02:15:00
8:55 PM,53.6,24.8,33,29.78,10.0,North,-9999.0,-,N/A,,Clear,0,2012-12-19 02:55:00
9:15 PM,59.0,24.8,27,29.79,10.0,North,-9999.0,-,N/A,,Clear,0,2012-12-19 03:15:00
9:35 PM,57.2,24.8,29,29.79,10.0,North,-9999.0,-,N/A,,Clear,0,2012-12-19 03:35:00
9:55 PM,55.4,24.8,31,29.79,10.0,North,-9999.0,-,N/A,,Clear,0,2012-12-19 03:55:00
10:15 PM,55.4,24.8,31,29.80,10.0,North,-9999.0,-,N/A,,Clear,0,2012-12-19 04:15:00
10:35 PM,53.6,24.8,33,29.80,10.0,North,-9999.0,-,N/A,,Clear,0,2012-12-19 04:35:00
10:55 PM,46.4,24.8,43,29.80,10.0,North,-9999.0,-,N/A,,Clear,0,2012-12-19 04:55:00
11:15 PM,46.4,24.8,43,29.80,10.0,North,-9999.0,-,N/A,,Clear,0,2012-12-19 05:15:00
11:35 PM,44.6,24.8,46,29.79,10.0,Calm,Calm,-,N/A,,Clear,0,2012-12-19 05:35:00
11:55 PM,46.4,26.6,46,29.79,10.0,Calm,Calm,-,N/A,,Clear,0,2012-12-19 05:55:00